DAL2254 KBOS-KATL

Flight info

Callsign DAL2254
Flight time 2h 16m
Altitude 40000
Route BLZZR6 BLZZR BAF Q448 PTW J48 MOL FLASK OZZZI2
Aircraft A359/H-SDE2E3GHIJ3J4J5LM1ORWXY/LB1D1

Departure

Time 2026-05-08 00:52
Airport Boston Logan International Airport (KBOS)

Arrival

Time 2026-05-08 03:09
Airport Hartsfield Jackson Atlanta International Airport (KATL)
Time Latitude Longitude Altitude Speed Heading
2026-05-08 00:17 42.36226 -71.02428 31 ft 0 kts 274°
2026-05-08 00:36 42.36226 -71.02427 32 ft 1 kts 274°
2026-05-08 00:36 42.36225 -71.02396 30 ft 4 kts 274°
2026-05-08 00:36 42.36224 -71.02368 29 ft 4 kts 249°
2026-05-08 00:37 42.36239 -71.02345 30 ft 4 kts 192°
2026-05-08 00:37 42.36264 -71.02342 29 ft 4 kts 184°
2026-05-08 00:37 42.36280 -71.02340 31 ft 0 kts 184°
2026-05-08 00:39 42.36268 -71.02342 32 ft 4 kts 185°
2026-05-08 00:40 42.36250 -71.02343 32 ft 0 kts 182°
2026-05-08 00:40 42.36231 -71.02345 32 ft 7 kts 185°
2026-05-08 00:40 42.36173 -71.02352 32 ft 10 kts 185°
2026-05-08 00:41 42.36101 -71.02329 31 ft 12 kts 148°
2026-05-08 00:41 42.36033 -71.02246 32 ft 15 kts 126°
2026-05-08 00:41 42.35983 -71.02148 32 ft 0 kts 122°
2026-05-08 00:43 42.35958 -71.02090 31 ft 11 kts 121°
2026-05-08 00:43 42.35913 -71.01989 32 ft 14 kts 121°
2026-05-08 00:43 42.35866 -71.01869 32 ft 16 kts 112°
2026-05-08 00:44 42.35839 -71.01731 32 ft 13 kts 103°
2026-05-08 00:44 42.35826 -71.01604 32 ft 13 kts 76°
2026-05-08 00:44 42.35900 -71.01547 32 ft 14 kts 19°
2026-05-08 00:44 42.35999 -71.01495 32 ft 16 kts 21°
2026-05-08 00:45 42.36115 -71.01439 32 ft 19 kts 19°
2026-05-08 00:45 42.36244 -71.01378 32 ft 15 kts 19°
2026-05-08 00:45 42.36321 -71.01318 32 ft 14 kts 56°
2026-05-08 00:45 42.36291 -71.01206 32 ft 15 kts 124°
2026-05-08 00:46 42.36238 -71.01074 32 ft 17 kts 117°
2026-05-08 00:46 42.36185 -71.00913 32 ft 20 kts 114°
2026-05-08 00:46 42.36127 -71.00735 33 ft 20 kts 110°
2026-05-08 00:46 42.36079 -71.00550 32 ft 19 kts 109°
2026-05-08 00:47 42.36032 -71.00370 32 ft 22 kts 109°
2026-05-08 00:47 42.36001 -71.00249 32 ft 13 kts 109°
2026-05-08 00:47 42.35967 -71.00132 32 ft 13 kts 116°
2026-05-08 00:47 42.35908 -71.00020 31 ft 16 kts 133°
2026-05-08 00:48 42.35824 -70.99905 32 ft 19 kts 135°
2026-05-08 00:48 42.35725 -70.99771 32 ft 17 kts 135°
2026-05-08 00:48 42.35644 -70.99666 32 ft 18 kts 135°
2026-05-08 00:48 42.35554 -70.99544 32 ft 14 kts 135°
2026-05-08 00:49 42.35494 -70.99452 32 ft 10 kts 115°
2026-05-08 00:49 42.35492 -70.99409 32 ft 4 kts 79°
2026-05-08 00:49 42.35492 -70.99406 32 ft 0 kts 79°
2026-05-08 00:50 42.35500 -70.99347 32 ft 9 kts 80°
2026-05-08 00:50 42.35516 -70.99269 30 ft 3 kts 46°
2026-05-08 00:51 42.35540 -70.99268 32 ft 4 kts 343°
2026-05-08 00:51 42.35555 -70.99286 32 ft 0 kts 315°
2026-05-08 00:51 42.35640 -70.99399 30 ft 45 kts 315°
2026-05-08 00:52 42.36036 -70.99928 30 ft 113 kts 315°
2026-05-08 00:52 42.36728 -71.00854 160 ft 157 kts 312°
2026-05-08 00:52 42.37496 -71.01901 917 ft 153 kts 312°
2026-05-08 00:52 42.38241 -71.02927 1694 ft 159 kts 313°
2026-05-08 00:53 42.39005 -71.04149 2076 ft 181 kts 305°
2026-05-08 00:53 42.39704 -71.05679 2513 ft 201 kts 298°
2026-05-08 00:53 42.40378 -71.07405 3011 ft 221 kts 297°
2026-05-08 00:53 42.40965 -71.09407 3564 ft 237 kts 283°
2026-05-08 00:54 42.40851 -71.11660 4310 ft 246 kts 255°
2026-05-08 00:54 42.40265 -71.13870 5111 ft 253 kts 251°
2026-05-08 00:54 42.39622 -71.16110 5955 ft 258 kts 251°
2026-05-08 00:54 42.38976 -71.18397 6822 ft 261 kts 251°
2026-05-08 00:55 42.38334 -71.20698 7770 ft 262 kts 251°
2026-05-08 00:55 42.37694 -71.23004 8792 ft 262 kts 252°
2026-05-08 00:55 42.37057 -71.25316 9806 ft 263 kts 252°
2026-05-08 00:55 42.36416 -71.27650 10546 ft 272 kts 251°
2026-05-08 00:56 42.35737 -71.30130 11005 ft 291 kts 251°
2026-05-08 00:56 42.35009 -71.32782 11430 ft 310 kts 251°
2026-05-08 00:56 42.34239 -71.35580 12031 ft 322 kts 251°
2026-05-08 00:56 42.33403 -71.38416 12880 ft 326 kts 249°
2026-05-08 00:57 42.32799 -71.40286 13407 ft 330 kts 246°
2026-05-08 00:57 42.31701 -71.43009 13873 ft 331 kts 242°
2026-05-08 00:57 42.30524 -71.45682 13979 ft 331 kts 240°
2026-05-08 00:57 42.29306 -71.48315 14014 ft 330 kts 239°
2026-05-08 00:58 42.28066 -71.50928 14019 ft 330 kts 239°
2026-05-08 00:58 42.26815 -71.53535 14029 ft 330 kts 239°
2026-05-08 00:58 42.25564 -71.56137 14041 ft 330 kts 239°
2026-05-08 00:58 42.24314 -71.58741 14031 ft 330 kts 239°
2026-05-08 00:59 42.23081 -71.61315 14028 ft 331 kts 239°
2026-05-08 00:59 42.21834 -71.63921 14033 ft 331 kts 239°
2026-05-08 00:59 42.20583 -71.66543 14361 ft 334 kts 239°
2026-05-08 00:59 42.19331 -71.69166 15181 ft 332 kts 239°
2026-05-08 01:00 42.18088 -71.71769 16231 ft 328 kts 238°
2026-05-08 01:00 42.16854 -71.74349 17133 ft 326 kts 238°
2026-05-08 01:00 42.15637 -71.76897 18020 ft 325 kts 238°
2026-05-08 01:00 42.14410 -71.79459 18805 ft 326 kts 237°
2026-05-08 01:01 42.13168 -71.82048 19421 ft 331 kts 237°
2026-05-08 01:01 42.11904 -71.84681 20075 ft 337 kts 238°
2026-05-08 01:01 42.10633 -71.87325 20734 ft 341 kts 238°
2026-05-08 01:01 42.09340 -71.90014 21411 ft 345 kts 238°
2026-05-08 01:02 42.08035 -71.92725 22105 ft 348 kts 238°
2026-05-08 01:02 42.06710 -71.95473 22787 ft 352 kts 238°
2026-05-08 01:02 42.05372 -71.98248 23424 ft 356 kts 238°
2026-05-08 01:02 42.04013 -72.01064 23976 ft 360 kts 238°
2026-05-08 01:03 42.02645 -72.03894 24553 ft 363 kts 238°
2026-05-08 01:03 42.01299 -72.06677 25133 ft 365 kts 238°
2026-05-08 01:03 41.99914 -72.09539 25680 ft 367 kts 238°
2026-05-08 01:03 41.98512 -72.12432 26228 ft 370 kts 239°
2026-05-08 01:04 41.97102 -72.15340 26790 ft 373 kts 239°
2026-05-08 01:04 41.95678 -72.18275 27373 ft 375 kts 239°
2026-05-08 01:04 41.94263 -72.21187 27926 ft 378 kts 239°
2026-05-08 01:04 41.92823 -72.24146 28473 ft 380 kts 239°
2026-05-08 01:05 41.91370 -72.27130 29061 ft 382 kts 240°
2026-05-08 01:05 41.89914 -72.30117 29756 ft 382 kts 240°
2026-05-08 01:05 41.88452 -72.33113 30196 ft 385 kts 240°
2026-05-08 01:05 41.86976 -72.36137 30548 ft 389 kts 240°
2026-05-08 01:06 41.85489 -72.39182 30837 ft 392 kts 240°
2026-05-08 01:06 41.83991 -72.42244 31156 ft 396 kts 240°
2026-05-08 01:06 41.82471 -72.45346 31523 ft 398 kts 240°
2026-05-08 01:06 41.80944 -72.48458 31871 ft 400 kts 240°
2026-05-08 01:07 41.79410 -72.51583 32214 ft 403 kts 240°
2026-05-08 01:07 41.77880 -72.54696 32545 ft 405 kts 240°
2026-05-08 01:07 41.76321 -72.57865 32992 ft 404 kts 240°
2026-05-08 01:07 41.74681 -72.61191 33567 ft 402 kts 240°
2026-05-08 01:08 41.73238 -72.64116 34027 ft 400 kts 240°
2026-05-08 01:08 41.71708 -72.67215 34397 ft 399 kts 240°
2026-05-08 01:08 41.70180 -72.70307 34704 ft 398 kts 240°
2026-05-08 01:08 41.68651 -72.73399 34993 ft 399 kts 240°
2026-05-08 01:09 41.67119 -72.76496 35329 ft 398 kts 239°
2026-05-08 01:09 41.65611 -72.79541 35634 ft 397 kts 239°
2026-05-08 01:09 41.64064 -72.82661 35967 ft 397 kts 239°
2026-05-08 01:09 41.62540 -72.85731 36279 ft 397 kts 239°
2026-05-08 01:10 41.61031 -72.88768 36576 ft 396 kts 239°
2026-05-08 01:10 41.59509 -72.91828 36873 ft 396 kts 239°
2026-05-08 01:10 41.57984 -72.94890 37155 ft 396 kts 239°
2026-05-08 01:10 41.56456 -72.97956 37433 ft 396 kts 239°
2026-05-08 01:11 41.54924 -73.01028 37647 ft 398 kts 239°
2026-05-08 01:11 41.53393 -73.04095 37916 ft 398 kts 239°
2026-05-08 01:11 41.51858 -73.07166 38205 ft 397 kts 239°
2026-05-08 01:11 41.50323 -73.10231 38474 ft 396 kts 239°
2026-05-08 01:12 41.48789 -73.13295 38687 ft 396 kts 239°
2026-05-08 01:12 41.47251 -73.16362 38842 ft 397 kts 239°
2026-05-08 01:12 41.45715 -73.19424 38987 ft 398 kts 239°
2026-05-08 01:12 41.44192 -73.22455 39150 ft 399 kts 239°
2026-05-08 01:13 41.42643 -73.25536 39309 ft 399 kts 239°
2026-05-08 01:13 41.41097 -73.28607 39463 ft 400 kts 239°
2026-05-08 01:13 41.39544 -73.31688 39601 ft 400 kts 239°
2026-05-08 01:14 41.36424 -73.37870 39785 ft 403 kts 239°
2026-05-08 01:14 41.33300 -73.44047 39888 ft 403 kts 239°
2026-05-08 01:15 41.30190 -73.50184 39887 ft 403 kts 239°
2026-05-08 01:15 41.27058 -73.56351 39884 ft 403 kts 239°
2026-05-08 01:16 41.23918 -73.62524 39880 ft 403 kts 239°
2026-05-08 01:16 41.20773 -73.68693 39875 ft 403 kts 239°
2026-05-08 01:17 41.17623 -73.74860 39874 ft 403 kts 239°
2026-05-08 01:17 41.14467 -73.81025 39877 ft 404 kts 239°
2026-05-08 01:18 41.11309 -73.87184 39876 ft 404 kts 239°
2026-05-08 01:18 41.08146 -73.93336 39869 ft 404 kts 239°
2026-05-08 01:19 41.04996 -73.99455 39860 ft 404 kts 239°
2026-05-08 01:19 41.01829 -74.05592 39866 ft 404 kts 239°
2026-05-08 01:20 40.98660 -74.11723 39883 ft 404 kts 239°
2026-05-08 01:20 40.95482 -74.17856 39885 ft 404 kts 239°
2026-05-08 01:21 40.92300 -74.23986 39888 ft 404 kts 239°
2026-05-08 01:21 40.89117 -74.30107 39870 ft 404 kts 239°
2026-05-08 01:22 40.85936 -74.36211 39933 ft 403 kts 239°
2026-05-08 01:22 40.82752 -74.42310 39888 ft 403 kts 239°
2026-05-08 01:23 40.79585 -74.48363 39889 ft 403 kts 239°
2026-05-08 01:23 40.76396 -74.54447 39866 ft 403 kts 239°
2026-05-08 01:24 40.73206 -74.60523 39805 ft 403 kts 239°
2026-05-08 01:24 40.70001 -74.66613 39876 ft 404 kts 239°
2026-05-08 01:25 40.66789 -74.72705 39874 ft 404 kts 239°
2026-05-08 01:25 40.63595 -74.78750 39872 ft 404 kts 239°
2026-05-08 01:26 40.60375 -74.84833 39863 ft 405 kts 239°
2026-05-08 01:26 40.57153 -74.90907 39861 ft 405 kts 239°
2026-05-08 01:27 40.53923 -74.96987 39856 ft 405 kts 239°
2026-05-08 01:27 40.50686 -75.03066 39868 ft 406 kts 239°
2026-05-08 01:28 40.47444 -75.09143 39886 ft 406 kts 239°
2026-05-08 01:28 40.44206 -75.15199 39880 ft 405 kts 239°
2026-05-08 01:29 40.40968 -75.21245 39891 ft 405 kts 239°
2026-05-08 01:29 40.37725 -75.27291 39876 ft 405 kts 239°
2026-05-08 01:30 40.34496 -75.33299 39884 ft 405 kts 239°
2026-05-08 01:30 40.31243 -75.39337 39886 ft 405 kts 239°
2026-05-08 01:31 40.27986 -75.45371 39898 ft 405 kts 239°
2026-05-08 01:31 40.24728 -75.51394 39890 ft 405 kts 239°
2026-05-08 01:32 40.21473 -75.57413 39859 ft 404 kts 240°
2026-05-08 01:32 40.18376 -75.63500 39886 ft 404 kts 242°
2026-05-08 01:33 40.15328 -75.69678 39885 ft 404 kts 242°
2026-05-08 01:33 40.12258 -75.75838 39881 ft 404 kts 241°
2026-05-08 01:34 40.09163 -75.81985 39883 ft 404 kts 241°
2026-05-08 01:34 40.06089 -75.88051 39879 ft 403 kts 241°
2026-05-08 01:35 40.03014 -75.94117 39850 ft 403 kts 241°
2026-05-08 01:35 39.99913 -76.00222 39877 ft 403 kts 241°
2026-05-08 01:36 39.96812 -76.06316 39861 ft 403 kts 241°
2026-05-08 01:36 39.93710 -76.12413 39862 ft 403 kts 241°
2026-05-08 01:37 39.90596 -76.18505 39865 ft 403 kts 241°
2026-05-08 01:37 39.87486 -76.24586 39865 ft 404 kts 241°
2026-05-08 01:38 39.84383 -76.30626 39863 ft 404 kts 241°
2026-05-08 01:38 39.81258 -76.36702 39862 ft 403 kts 241°
2026-05-08 01:39 39.78136 -76.42764 39863 ft 403 kts 241°
2026-05-08 01:39 39.75012 -76.48823 39865 ft 404 kts 241°
2026-05-08 01:40 39.71879 -76.54886 39869 ft 405 kts 241°
2026-05-08 01:40 39.68726 -76.60974 39842 ft 406 kts 241°
2026-05-08 01:41 39.65595 -76.67009 39878 ft 405 kts 241°
2026-05-08 01:41 39.62440 -76.73077 39875 ft 406 kts 241°
2026-05-08 01:42 39.59280 -76.79144 39873 ft 405 kts 241°
2026-05-08 01:42 39.56120 -76.85201 39886 ft 405 kts 241°
2026-05-08 01:43 39.52953 -76.91261 39916 ft 407 kts 241°
2026-05-08 01:43 39.49591 -76.97192 39908 ft 413 kts 234°
2026-05-08 01:44 39.45344 -77.02303 39914 ft 419 kts 227°
2026-05-08 01:44 39.41593 -77.06289 39914 ft 420 kts 227°
2026-05-08 01:45 39.36290 -77.11797 39932 ft 421 kts 226°
2026-05-08 01:45 39.31738 -77.16541 39899 ft 420 kts 227°
2026-05-08 01:46 39.27928 -77.20526 39933 ft 420 kts 227°
2026-05-08 01:46 39.23413 -77.25251 39936 ft 420 kts 227°
2026-05-08 01:47 39.18866 -77.30001 39935 ft 420 kts 227°
2026-05-08 01:47 39.14313 -77.34749 39930 ft 421 kts 227°
2026-05-08 01:48 39.07486 -77.41850 39940 ft 420 kts 227°
2026-05-08 01:48 39.02936 -77.46573 39924 ft 419 kts 227°
2026-05-08 01:49 38.98420 -77.51253 39925 ft 419 kts 227°
2026-05-08 01:49 38.93871 -77.55960 39925 ft 420 kts 227°
2026-05-08 01:50 38.89315 -77.60665 39928 ft 420 kts 227°
2026-05-08 01:50 38.84773 -77.65346 39939 ft 417 kts 227°
2026-05-08 01:51 38.80249 -77.70003 39939 ft 417 kts 227°
2026-05-08 01:51 38.75749 -77.74628 39939 ft 417 kts 227°
2026-05-08 01:52 38.71226 -77.79270 39939 ft 417 kts 227°
2026-05-08 01:52 38.66698 -77.83911 39950 ft 416 kts 228°
2026-05-08 01:53 38.62690 -77.89075 39951 ft 403 kts 238°
2026-05-08 01:53 38.59256 -77.94736 39954 ft 401 kts 240°
2026-05-08 01:54 38.55944 -78.00416 39956 ft 401 kts 240°
2026-05-08 01:54 38.52613 -78.06128 39952 ft 401 kts 240°
2026-05-08 01:55 38.49268 -78.11820 39943 ft 400 kts 240°
2026-05-08 01:55 38.45915 -78.17496 39938 ft 399 kts 240°
2026-05-08 01:56 38.42567 -78.23156 39941 ft 399 kts 240°
2026-05-08 01:56 38.39219 -78.28807 39938 ft 399 kts 240°
2026-05-08 01:57 38.35874 -78.34443 39935 ft 399 kts 240°
2026-05-08 01:57 38.32543 -78.40046 39952 ft 399 kts 240°
2026-05-08 01:58 38.29194 -78.45668 39953 ft 397 kts 240°
2026-05-08 01:58 38.25860 -78.51251 39958 ft 395 kts 240°
2026-05-08 01:59 38.22538 -78.56813 39958 ft 395 kts 240°
2026-05-08 01:59 38.19210 -78.62375 39957 ft 395 kts 240°
2026-05-08 02:00 38.15872 -78.67942 39961 ft 395 kts 240°
2026-05-08 02:00 38.12542 -78.73483 39952 ft 394 kts 240°
2026-05-08 02:01 38.09219 -78.79005 39963 ft 393 kts 240°
2026-05-08 02:01 38.05906 -78.84501 39970 ft 391 kts 240°
2026-05-08 02:02 38.02619 -78.89945 39965 ft 391 kts 240°
2026-05-08 02:02 37.99315 -78.95413 39957 ft 391 kts 240°
2026-05-08 02:03 37.96001 -79.00884 39954 ft 391 kts 240°
2026-05-08 02:03 37.92682 -79.06354 39978 ft 391 kts 241°
2026-05-08 02:04 37.89371 -79.11781 39975 ft 389 kts 240°
2026-05-08 02:04 37.85691 -79.16905 40003 ft 393 kts 237°
2026-05-08 02:05 37.82003 -79.21944 40017 ft 392 kts 237°
2026-05-08 02:05 37.78315 -79.27039 40031 ft 393 kts 237°
2026-05-08 02:06 37.74636 -79.32134 40038 ft 392 kts 237°
2026-05-08 02:06 37.70958 -79.37227 39956 ft 392 kts 237°
2026-05-08 02:07 37.67285 -79.42308 40026 ft 391 kts 237°
2026-05-08 02:07 37.63624 -79.47363 40018 ft 389 kts 238°
2026-05-08 02:08 37.59997 -79.52366 40002 ft 388 kts 238°
2026-05-08 02:08 37.56355 -79.57381 39982 ft 387 kts 238°
2026-05-08 02:09 37.52714 -79.62390 39960 ft 387 kts 238°
2026-05-08 02:09 37.49071 -79.67393 39929 ft 388 kts 238°
2026-05-08 02:10 37.45419 -79.72397 39975 ft 387 kts 238°
2026-05-08 02:10 37.41771 -79.77389 39986 ft 387 kts 238°
2026-05-08 02:11 37.38120 -79.82373 39995 ft 386 kts 238°
2026-05-08 02:11 37.34508 -79.87299 39997 ft 384 kts 238°
2026-05-08 02:12 37.30880 -79.92244 40000 ft 384 kts 238°
2026-05-08 02:12 37.27259 -79.97171 39981 ft 384 kts 238°
2026-05-08 02:13 37.23646 -80.02077 39978 ft 385 kts 238°
2026-05-08 02:13 37.20006 -80.07013 39984 ft 385 kts 238°
2026-05-08 02:14 37.16363 -80.11944 39993 ft 385 kts 238°
2026-05-08 02:14 37.12714 -80.16877 40025 ft 385 kts 238°
2026-05-08 02:15 37.09073 -80.21789 40002 ft 382 kts 238°
2026-05-08 02:15 37.05460 -80.26659 39996 ft 382 kts 238°
2026-05-08 02:16 37.01857 -80.31511 40003 ft 383 kts 238°
2026-05-08 02:16 36.98147 -80.36330 40001 ft 385 kts 236°
2026-05-08 02:17 36.94390 -80.41104 39992 ft 385 kts 237°
2026-05-08 02:17 36.90640 -80.45886 39981 ft 385 kts 237°
2026-05-08 02:18 36.86890 -80.50670 39974 ft 385 kts 237°
2026-05-08 02:18 36.83143 -80.55447 39989 ft 385 kts 237°
2026-05-08 02:19 36.79413 -80.60191 39966 ft 382 kts 237°
2026-05-08 02:19 36.75699 -80.64914 39998 ft 381 kts 237°
2026-05-08 02:20 36.71985 -80.69629 40003 ft 381 kts 237°
2026-05-08 02:20 36.68291 -80.74312 40005 ft 381 kts 237°
2026-05-08 02:21 36.64569 -80.79024 40004 ft 381 kts 237°
2026-05-08 02:21 36.60845 -80.83731 40000 ft 383 kts 236°
2026-05-08 02:22 36.57090 -80.88470 39996 ft 384 kts 236°
2026-05-08 02:22 36.53333 -80.93202 39981 ft 384 kts 237°
2026-05-08 02:23 36.49591 -80.97908 39981 ft 381 kts 237°
2026-05-08 02:23 36.45862 -81.02594 39995 ft 381 kts 237°
2026-05-08 02:24 36.42153 -81.07249 40015 ft 382 kts 237°
2026-05-08 02:24 36.38409 -81.11943 40021 ft 383 kts 236°
2026-05-08 02:25 36.34649 -81.16645 40029 ft 384 kts 237°
2026-05-08 02:25 36.30888 -81.21347 40039 ft 384 kts 237°
2026-05-08 02:26 36.27128 -81.26044 40032 ft 383 kts 236°
2026-05-08 02:26 36.23371 -81.30732 40020 ft 383 kts 237°
2026-05-08 02:27 36.19626 -81.35396 40007 ft 381 kts 237°
2026-05-08 02:27 36.15907 -81.40025 39988 ft 382 kts 237°
2026-05-08 02:28 36.12147 -81.44699 39980 ft 384 kts 236°
2026-05-08 02:28 36.08367 -81.49387 39957 ft 384 kts 236°
2026-05-08 02:29 36.04587 -81.54071 39953 ft 384 kts 236°
2026-05-08 02:29 36.00814 -81.58737 39949 ft 383 kts 237°
2026-05-08 02:30 35.97039 -81.63401 39964 ft 384 kts 236°
2026-05-08 02:30 35.93258 -81.68066 39956 ft 385 kts 236°
2026-05-08 02:31 35.89495 -81.72699 39954 ft 384 kts 236°
2026-05-08 02:31 35.85710 -81.77355 40030 ft 384 kts 236°
2026-05-08 02:32 35.81926 -81.82004 40022 ft 384 kts 236°
2026-05-08 02:32 35.78136 -81.86653 40009 ft 385 kts 236°
2026-05-08 02:33 35.74289 -81.91257 39995 ft 385 kts 236°
2026-05-08 02:33 35.71092 -81.95070 39979 ft 385 kts 236°
2026-05-08 02:34 35.67246 -81.99663 39989 ft 385 kts 236°
2026-05-08 02:34 35.62775 -82.04998 39997 ft 385 kts 236°
2026-05-08 02:35 35.58927 -82.09584 39992 ft 385 kts 236°
2026-05-08 02:35 35.55700 -82.13424 40005 ft 385 kts 236°
2026-05-08 02:36 35.51849 -82.18002 39997 ft 385 kts 236°
2026-05-08 02:36 35.48014 -82.22557 39980 ft 387 kts 235°
2026-05-08 02:37 35.44126 -82.27170 39991 ft 391 kts 235°
2026-05-08 02:37 35.40263 -82.31821 39978 ft 387 kts 237°
2026-05-08 02:38 35.36501 -82.36533 39967 ft 386 kts 237°
2026-05-08 02:38 35.32729 -82.41233 39976 ft 386 kts 236°
2026-05-08 02:39 35.28957 -82.45914 39985 ft 385 kts 236°
2026-05-08 02:39 35.25214 -82.50552 39997 ft 385 kts 236°
2026-05-08 02:40 35.21437 -82.55223 40008 ft 386 kts 236°
2026-05-08 02:40 35.17661 -82.59885 39998 ft 386 kts 236°
2026-05-08 02:41 35.13854 -82.64536 39986 ft 388 kts 235°
2026-05-08 02:41 35.09970 -82.69122 39987 ft 388 kts 235°
2026-05-08 02:42 35.06095 -82.73704 39969 ft 388 kts 235°
2026-05-08 02:42 35.04153 -82.76003 39756 ft 387 kts 235°
2026-05-08 02:42 35.02216 -82.78296 39464 ft 388 kts 236°
2026-05-08 02:43 35.00298 -82.80571 39240 ft 390 kts 236°
2026-05-08 02:43 34.98346 -82.82882 39015 ft 392 kts 236°
2026-05-08 02:43 34.96390 -82.85195 38790 ft 392 kts 236°
2026-05-08 02:43 34.94432 -82.87506 38537 ft 392 kts 236°
2026-05-08 02:44 34.92471 -82.89816 38273 ft 393 kts 235°
2026-05-08 02:44 34.90489 -82.92115 38013 ft 394 kts 235°
2026-05-08 02:44 34.88497 -82.94412 37563 ft 391 kts 235°
2026-05-08 02:44 34.86528 -82.96681 36929 ft 389 kts 234°
2026-05-08 02:45 34.84566 -82.98948 36250 ft 389 kts 234°
2026-05-08 02:45 34.82607 -83.01214 35557 ft 389 kts 234°
2026-05-08 02:45 34.80644 -83.03483 34851 ft 390 kts 234°
2026-05-08 02:45 34.78671 -83.05764 34003 ft 392 kts 233°
2026-05-08 02:46 34.76682 -83.08059 33130 ft 395 kts 233°
2026-05-08 02:46 34.74685 -83.10363 32277 ft 396 kts 233°
2026-05-08 02:46 34.72682 -83.12678 31444 ft 399 kts 233°
2026-05-08 02:46 34.70661 -83.15005 30544 ft 402 kts 234°
2026-05-08 02:47 34.68613 -83.17361 29537 ft 406 kts 234°
2026-05-08 02:47 34.66587 -83.19691 28659 ft 406 kts 233°
2026-05-08 02:47 34.64546 -83.22028 28007 ft 401 kts 233°
2026-05-08 02:47 34.62525 -83.24342 27345 ft 397 kts 233°
2026-05-08 02:48 34.60521 -83.26639 26678 ft 394 kts 232°
2026-05-08 02:48 34.58540 -83.28910 25993 ft 391 kts 232°
2026-05-08 02:48 34.56567 -83.31172 25340 ft 389 kts 232°
2026-05-08 02:48 34.54609 -83.33420 24629 ft 386 kts 232°
2026-05-08 02:49 34.52662 -83.35660 23996 ft 384 kts 231°
2026-05-08 02:49 34.50728 -83.37887 23298 ft 383 kts 231°
2026-05-08 02:49 34.48803 -83.40100 22576 ft 380 kts 231°
2026-05-08 02:49 34.46888 -83.42299 21914 ft 377 kts 231°
2026-05-08 02:50 34.45015 -83.44448 21244 ft 375 kts 231°
2026-05-08 02:50 34.43128 -83.46614 20583 ft 373 kts 231°
2026-05-08 02:50 34.41244 -83.48776 19920 ft 372 kts 231°
2026-05-08 02:50 34.39365 -83.50929 19243 ft 372 kts 231°
2026-05-08 02:51 34.37478 -83.53092 18554 ft 373 kts 230°
2026-05-08 02:51 34.35586 -83.55255 17803 ft 374 kts 230°
2026-05-08 02:51 34.33685 -83.57413 17059 ft 374 kts 230°
2026-05-08 02:51 34.31795 -83.59578 16347 ft 374 kts 230°
2026-05-08 02:52 34.29907 -83.61740 15609 ft 373 kts 230°
2026-05-08 02:52 34.28025 -83.63882 14877 ft 371 kts 229°
2026-05-08 02:52 34.26088 -83.65961 14135 ft 372 kts 227°
2026-05-08 02:52 34.24150 -83.67994 13742 ft 361 kts 227°
2026-05-08 02:53 34.22319 -83.69910 13611 ft 343 kts 228°
2026-05-08 02:53 34.20563 -83.71756 13474 ft 326 kts 228°
2026-05-08 02:53 34.18895 -83.73518 13337 ft 310 kts 229°
2026-05-08 02:53 34.17308 -83.75198 13197 ft 296 kts 229°
2026-05-08 02:54 34.15798 -83.76799 13063 ft 282 kts 229°
2026-05-08 02:54 34.14351 -83.78333 12921 ft 270 kts 230°
2026-05-08 02:54 34.12968 -83.79803 12789 ft 261 kts 230°
2026-05-08 02:54 34.11622 -83.81235 12535 ft 256 kts 230°
2026-05-08 02:55 34.10293 -83.82654 12190 ft 255 kts 230°
2026-05-08 02:55 34.07613 -83.85541 11669 ft 265 kts 230°
2026-05-08 02:55 34.06226 -83.87036 11464 ft 268 kts 229°
2026-05-08 02:56 34.04858 -83.88501 11163 ft 265 kts 229°
2026-05-08 02:56 34.03466 -83.89992 10851 ft 262 kts 229°
2026-05-08 02:56 34.02124 -83.91429 10596 ft 261 kts 229°
2026-05-08 02:56 34.00766 -83.92885 10348 ft 260 kts 229°
2026-05-08 02:57 33.99413 -83.94333 10092 ft 259 kts 229°
2026-05-08 02:57 33.98018 -83.95714 9819 ft 262 kts 222°
2026-05-08 02:57 33.96313 -83.96622 9546 ft 277 kts 201°
2026-05-08 02:57 33.94346 -83.96791 9278 ft 287 kts 188°
2026-05-08 02:58 33.92343 -83.96700 9002 ft 288 kts 186°
2026-05-08 02:58 33.90346 -83.96588 8867 ft 288 kts 186°
2026-05-08 02:58 33.88347 -83.96482 8764 ft 287 kts 186°
2026-05-08 02:58 33.86351 -83.96384 8653 ft 286 kts 186°
2026-05-08 02:59 33.84396 -83.96295 8519 ft 286 kts 186°
2026-05-08 02:59 33.83019 -83.96235 8457 ft 285 kts 186°
2026-05-08 02:59 33.81114 -83.96153 8340 ft 285 kts 186°
2026-05-08 02:59 33.79137 -83.96069 8214 ft 284 kts 186°
2026-05-08 03:00 33.77159 -83.95987 8103 ft 284 kts 186°
2026-05-08 03:00 33.75226 -83.96135 8013 ft 274 kts 200°
2026-05-08 03:00 33.73439 -83.96838 7782 ft 268 kts 209°
2026-05-08 03:00 33.71716 -83.97694 7323 ft 268 kts 210°
2026-05-08 03:01 33.70002 -83.98565 6907 ft 267 kts 210°
2026-05-08 03:01 33.68303 -83.99421 6543 ft 263 kts 209°
2026-05-08 03:01 33.66681 -84.00393 6182 ft 258 kts 220°
2026-05-08 03:01 33.65467 -84.01906 5846 ft 249 kts 243°
2026-05-08 03:02 33.64917 -84.03839 5524 ft 245 kts 264°
2026-05-08 03:02 33.64859 -84.05881 5202 ft 246 kts 272°
2026-05-08 03:02 33.64916 -84.07934 5016 ft 244 kts 272°
2026-05-08 03:02 33.64947 -84.09908 4981 ft 228 kts 271°
2026-05-08 03:03 33.64950 -84.11737 4982 ft 211 kts 271°
2026-05-08 03:03 33.64950 -84.13413 4980 ft 196 kts 271°
2026-05-08 03:03 33.64952 -84.15032 5005 ft 193 kts 271°
2026-05-08 03:03 33.64954 -84.16612 4998 ft 185 kts 271°
2026-05-08 03:04 33.64956 -84.18151 4990 ft 184 kts 271°
2026-05-08 03:04 33.64958 -84.19688 5001 ft 184 kts 271°
2026-05-08 03:04 33.64959 -84.21223 5001 ft 181 kts 271°
2026-05-08 03:04 33.64958 -84.22668 4953 ft 165 kts 271°
2026-05-08 03:05 33.64958 -84.24023 4614 ft 161 kts 271°
2026-05-08 03:05 33.64957 -84.25385 4102 ft 165 kts 272°
2026-05-08 03:05 33.64955 -84.26783 3574 ft 170 kts 272°
2026-05-08 03:05 33.64954 -84.28189 3142 ft 170 kts 273°
2026-05-08 03:06 33.64954 -84.29573 2869 ft 159 kts 274°
2026-05-08 03:06 33.64954 -84.30863 2665 ft 148 kts 275°
2026-05-08 03:06 33.64955 -84.32058 2461 ft 137 kts 275°
2026-05-08 03:06 33.64953 -84.33162 2201 ft 133 kts 275°
2026-05-08 03:07 33.64963 -84.34261 1930 ft 131 kts 276°
2026-05-08 03:07 33.64962 -84.35359 1748 ft 130 kts 273°
2026-05-08 03:07 33.64926 -84.36440 1691 ft 134 kts 271°
2026-05-08 03:07 33.64941 -84.37553 1505 ft 132 kts 275°
2026-05-08 03:08 33.64962 -84.38651 1321 ft 131 kts 272°
2026-05-08 03:08 33.64957 -84.39747 1192 ft 133 kts 271°
2026-05-08 03:08 33.64955 -84.40853 1055 ft 132 kts 272°
2026-05-08 03:08 33.64957 -84.41933 1013 ft 120 kts 270°
2026-05-08 03:09 33.64953 -84.42659 1013 ft 58 kts 269°
2026-05-08 03:09 33.64951 -84.43048 1012 ft 25 kts 267°
2026-05-08 03:09 33.64925 -84.43170 1013 ft 15 kts 250°
2026-05-08 03:09 33.64881 -84.43288 1013 ft 16 kts 243°
2026-05-08 03:10 33.64845 -84.43422 1012 ft 18 kts 266°
2026-05-08 03:10 33.64812 -84.43536 1013 ft 13 kts 213°
2026-05-08 03:10 33.64723 -84.43600 1013 ft 16 kts 211°
2026-05-08 03:10 33.64614 -84.43669 1012 ft 19 kts 206°
2026-05-08 03:11 33.64544 -84.43620 1013 ft 14 kts 99°
2026-05-08 03:11 33.64541 -84.43492 1013 ft 17 kts 91°
2026-05-08 03:11 33.64539 -84.43341 1013 ft 19 kts 91°
2026-05-08 03:11 33.64542 -84.43170 1013 ft 22 kts 89°
2026-05-08 03:12 33.64542 -84.42982 1013 ft 24 kts 90°
2026-05-08 03:12 33.64542 -84.42775 1013 ft 26 kts 90°
2026-05-08 03:12 33.64542 -84.42552 1012 ft 28 kts 90°
2026-05-08 03:12 33.64542 -84.42340 1012 ft 7 kts 89°
2026-05-08 03:13 33.64541 -84.42269 1012 ft 9 kts 99°
2026-05-08 03:13 33.64494 -84.42237 1012 ft 9 kts 176°
2026-05-08 03:13 33.64425 -84.42234 1013 ft 11 kts 180°
2026-05-08 03:13 33.64338 -84.42233 1013 ft 14 kts 180°
2026-05-08 03:14 33.64264 -84.42286 1013 ft 14 kts 249°
2026-05-08 03:14 33.64276 -84.42382 1013 ft 8 kts 319°
2026-05-08 03:14 33.64330 -84.42415 1013 ft 7 kts 324°
2026-05-08 03:14 33.64349 -84.42458 1013 ft 6 kts 280°
2026-05-08 03:15 33.64349 -84.42495 1013 ft 0 kts 271°